Location: Neuvy Saint Sepulchre
(46.5953°N, 1.8122°E)
Time: 15:03:23
(UTC+01:00)

Envisat - Pass Details

Date: 26 October 2021
Orbit: 764 x 766 km, 98.2° (Epoch: 04 December)

Event Time Altitude Azimuth Distance (km) Brightness Sun altitude
Rises 06:42:48 0° 17° (NNE) 3,244 6.5 -18.3°
Reaches altitude 10° 06:45:11 10° 22° (NNE) 2,312 5.8 -17.9°
Maximum altitude 06:50:11 55° 100° (E) 916 3.7 -17.0°
Drops below altitude 10° 06:55:08 10° 178° (S) 2,294 5.5 -16.2°
Sets 06:57:29 0° 183° (S) 3,215 6.2 -15.8°
